Regional Weather Roundup
Issued by NWS Cleveland, OH

Home | Current Version | Previous Version | Graphics & Text | Print | Product List | Glossary On
Versions: 1 2 3 4 5 6 7 8 9 10 11 12 13 14 15 16 17 18 19 20 21 22 23 24 25 26 27 28 29 30 31 32 33 34 35 36 37 38 39 40 41 42 43 44 45 46 47 48 49 50
000
ASUS41 KCLE 011010
RWRCLE
OHIO REGIONAL WEATHER ROUNDUP
NATIONAL WEATHER SERVICE WILMINGTON, OH
500 AM EST SUN MAR 01 2015

NOTE: "FAIR" INDICATES FEW OR NO CLOUDS BELOW 12,000 FEET WITH NO
SIGNIFICANT WEATHER AND/OR OBSTRUCTIONS TO VISIBILITY.

OHZ001>008-015>018-024>027-034-035-043-044-011100-
   NORTHWEST OHIO

CITY           SKY/WX    TMP DP  RH WIND       PRES   REMARKS
DEFIANCE       LGT SNOW  17  13  84 CALM      30.41S FOG
FINDLAY        LGT SNOW  21  17  84 E3        30.38S FOG
TOLEDO EXPRESS LGT SNOW  16  12  86 CALM      30.40S FOG
TOLEDO EXEC    LGT SNOW  17  13  84 CALM      30.42S FOG
LIMA           LGT SNOW  23  20  88 CALM      30.36F VSB 3/4
$$

OHZ009>014-019>023-028>033-038-089-011100-
   NORTHEAST OHIO

CITY           SKY/WX    TMP DP  RH WIND       PRES   REMARKS
CLE-HOPKINS    LGT SNOW  20  17  88 SE5       30.44F VSB 1   WCI  13
CLE-LAKEFRONT  LGT SNOW  22  18  85 SE7       30.42F FOG     WCI  13
CUY CO. ARPT   NOT AVBL
LORAIN-ELYRIA  LGT SNOW  19  17  92 SE5       30.41F FOG     WCI  12
ASHTABULA      LGT SNOW  17  14  88 SE6       30.44S FOG     WCI   9
AKRON-CANTON   LGT SNOW  21  17  84 SE6       30.38F VSB 3/4 WCI  13
WOOSTER        LGT SNOW  19  17  92 SE3       30.39F VSB 1
MANSFIELD      LGT SNOW  21  20  96 SE6       30.36F FOG     WCI  13
YOUNGSTOWN     HVY SNOW  19  16  88 SE8       30.40F VSB 1/4 WCI   9
$$

OHZ042-051>053-060>062-070>072-077>081-011100-
  SOUTHWEST OHIO

CITY           SKY/WX    TMP DP  RH WIND       PRES   REMARKS
CINC-COVINGTON LGT SNOW  27  24  89 S5        30.38S FOG     WCI  22
CINC-LUNKEN    CLOUDY    25  24  96 CALM      30.42F
HAMILTON       LGT SNOW  28  26  92 CALM      30.40S FOG
DAYTON         LGT SNOW  25  22  88 CALM      30.38S VSB 3/4
WRIGHT-PAT AFB LGT SNOW  25  24  94 N2        30.38R FOG
DAYTON GENERAL LGT SNOW  29  28  96 S7        30.36S FOG     WCI  22
WILMINGTON     FRZ RAIN  29  27  92 S6        30.37R FOG     WCI  23
$$

OHZ036-037-039>041-045>050-054>059-063>069-073>076-082>088-011100-
  CENTRAL AND SOUTHEAST OHIO

CITY           SKY/WX    TMP DP  RH WIND       PRES   REMARKS
COLUMBUS       LGT SNOW  24  22  91 S3        30.38S VSB 1
OSU AIRPORT    LGT SNOW  24  21  88 CALM      30.38S VSB 1
BOLTON FIELD   LGT SNOW N/A N/A N/A S8        30.38S
RICKENBACK AFB LGT SNOW  26  24  93 S3        30.38F
NEWARK         LGT SNOW  25  22  88 S6        30.38F VSB 1   WCI  18
MARION         LGT SNOW  23  20  88 S8        30.38R FOG     WCI  14
LANCASTER      LGT SNOW  26  24  92 SE9       30.38F FOG     WCI  17
ZANESVILLE     LGT SNOW  23  21  92 S8        30.39F FOG     WCI  14
NEW PHILLY     LGT SNOW  23  19  85 SE5       30.41F VSB 3/4 WCI  17
$$


USA.gov is the U.S. government's official web portal to all federal, state and local government web resources and services.